Tracking 19969 objects as of 13-Nov-2019
Live streaming from Space Station
objects crossing your sky now
Track the group of recently launched Starlink satellites

LEASAT 1

Track LEASAT 1 now!
LEASAT 1 is classified as:


NORAD ID: 15384
Int'l Code: 1984-113C
Perigee: 36,158.9 km
Apogee: 36,412.2 km
Inclination: 13.6 °
Period: 1,461.3 minutes
Semi major axis: 42656 km
RCS: 16.1907 m2 (large)
Launch date: November 8, 1984
Source: United States (US)
Launch site: AIR FORCE EASTERN TEST RANGE (AFETR)
aabbcc
Your satellite tracking list
Your tracking list is empty




NASA's NSSDC Master Catalog

Two Line Element Set (TLE):
1 15384U 84113C   19316.41660698 +.00000009 +00000-0 +00000-0 0  9997
2 15384 013.5765 353.6543 0029684 247.7276 214.3048 00.98542694100182
Source of the keplerian elements: AFSPC